{"data":{"norad_id":55575,"epoch":"2026-05-25T03:18:00.063072Z","epoch_age_seconds":56376,"freshness":"FRESH","line1":"1 55575U 23020G   26145.13750073  .00000182  00000+0  16139-4 0  9992","line2":"2 55575  43.0015 296.9507 0001169 275.5355  84.5363 15.27581297180565","mean_motion":15.27581297,"eccentricity":0.0001169,"inclination_deg":43.0015,"raan_deg":296.9507,"arg_perigee_deg":275.5355,"mean_anomaly_deg":84.5363,"bstar":1.6139e-5,"rev_number":18056,"period_min":94.266668676031,"perigee_km":482.24314015718,"apogee_km":483.84728455843,"semimajor_km":6861.1822123578,"source":"CELESTRAK","updated_at":"2026-05-25T13:38:17.835635Z"}}